When you browse on this site, cookies collect data to enhance your experience and personalize the content and advertising you see.
Visit our Privacy Policy to learn more. By continuing to use the site, you agree to this use of cookies and data.
  • In Hungary
  • List of Countries
  • For 7 days
  • Water Temperature
  • Satellite Maps
  • Weather Map
  • News
  • Weather Widgets
  • user-avatar
    Login

    Hourly Weather Pogorzelce

    Today, 26 May, Sunday

    Time Temperature Precipitation Wind Pressure Humidity
    00:00 +13°C° 0 mm 2 mps 744 mmHg 90%
    01:00 +13°C° 0 mm 2 mps 745 mmHg 87%
    02:00 +13°C° 0 mm 2 mps 745 mmHg 84%
    03:00 +12°C° 0 mm 1 mps 745 mmHg 83%
    04:00 +12°C° 0 mm 1 mps 745 mmHg 83%
    05:00 +12°C° 0 mm 1 mps 745 mmHg 83%
    06:00 +13°C° 0 mm 1 mps 745 mmHg 81%
    07:00 +13°C° 0 mm 2 mps 745 mmHg 79%
    08:00 +13°C° 0 mm 3 mps 745 mmHg 76%
    09:00 +13°C° 0 mm 3 mps 745 mmHg 74%
    10:00 +13°C° 0 mm 4 mps 745 mmHg 71%
    11:00 +14°C° 0 mm 4 mps 745 mmHg 69%
    12:00 +14°C° 0 mm 4 mps 745 mmHg 67%
    13:00 +14°C° 0 mm 4 mps 745 mmHg 66%
    14:00 +15°C° 0 mm 4 mps 745 mmHg 65%
    15:00 +15°C° 0 mm 4 mps 744 mmHg 64%
    16:00 +17°C° 0 mm 4 mps 744 mmHg 64%
    17:00 +17°C° 0 mm 4 mps 744 mmHg 63%
    18:00 +16°C° 0 mm 3 mps 744 mmHg 69%
    19:00 +15°C° 0 mm 2 mps 744 mmHg 75%
    20:00 +14°C° 0 mm 2 mps 744 mmHg 81%
    21:00 +14°C° 0 mm 2 mps 744 mmHg 84%
    22:00 +13°C° 0 mm 2 mps 744 mmHg 86%
    23:00 +12°C° 0 mm 2 mps 744 mmHg 89%

    Tomorrow, 27 May, Monday

    Time Temperature Precipitation Wind Pressure Humidity
    00:00 +12°C° 0 mm 2 mps 744 mmHg 89%
    01:00 +11°C° 0 mm 3 mps 744 mmHg 89%
    02:00 +11°C° 0 mm 3 mps 744 mmHg 88%
    03:00 +11°C° 0 mm 3 mps 744 mmHg 87%
    04:00 +12°C° 0 mm 3 mps 743 mmHg 86%
    05:00 +12°C° 0 mm 3 mps 743 mmHg 86%
    06:00 +14°C° 0 mm 4 mps 743 mmHg 80%
    07:00 +17°C° 0 mm 4 mps 743 mmHg 75%
    08:00 +17°C° 0 mm 5 mps 744 mmHg 69%
    09:00 +20°C° 0 mm 5 mps 744 mmHg 64%
    10:00 +22°C° 0 mm 5 mps 743 mmHg 59%
    11:00 +23°C° 0 mm 5 mps 743 mmHg 54%
    12:00 +25°C° 0 mm 5 mps 743 mmHg 52%
    13:00 +25°C° 0 mm 5 mps 743 mmHg 51%
    14:00 +26°C° 0 mm 5 mps 743 mmHg 49%
    15:00 +25°C° 0.3 mm 5 mps 743 mmHg 56%
    16:00 +25°C° 0.3 mm 5 mps 742 mmHg 62%
    17:00 +23°C° 0.3 mm 5 mps 742 mmHg 68%
    18:00 +22°C° 0.3 mm 4 mps 742 mmHg 74%
    19:00 +21°C° 0.3 mm 3 mps 742 mmHg 80%
    20:00 +19°C° 0.3 mm 3 mps 742 mmHg 86%
    21:00 +19°C° 0.5 mm 3 mps 742 mmHg 89%
    22:00 +18°C° 0.5 mm 3 mps 742 mmHg 91%
    23:00 +17°C° 0.5 mm 3 mps 743 mmHg 94%

    Day after tomorrow, 28 May, Tuesday

    Time Temperature Precipitation Wind Pressure Humidity
    00:00 +16°C° 0 mm 3 mps 742 mmHg 94%
    01:00 +16°C° 0 mm 2 mps 742 mmHg 94%
    02:00 +15°C° 0 mm 2 mps 742 mmHg 94%
    03:00 +15°C° 0 mm 2 mps 742 mmHg 94%
    04:00 +16°C° 0 mm 2 mps 742 mmHg 94%
    05:00 +16°C° 0 mm 2 mps 741 mmHg 94%
    06:00 +16°C° 2 mm 2 mps 741 mmHg 95%
    07:00 +16°C° 2 mm 3 mps 741 mmHg 96%
    08:00 +16°C° 2 mm 3 mps 740 mmHg 97%
    09:00 +18°C° 0.9 mm 3 mps 740 mmHg 94%
    10:00 +19°C° 0.9 mm 4 mps 740 mmHg 91%
    11:00 +20°C° 0.9 mm 4 mps 740 mmHg 88%
    12:00 +22°C° 0.6 mm 4 mps 740 mmHg 84%
    13:00 +23°C° 0.6 mm 5 mps 740 mmHg 79%
    14:00 +25°C° 0.6 mm 5 mps 739 mmHg 75%
    15:00 +23°C° 1 mm 5 mps 739 mmHg 78%
    16:00 +23°C° 1 mm 5 mps 739 mmHg 81%
    17:00 +22°C° 1 mm 4 mps 739 mmHg 83%
    18:00 +21°C° 1 mm 4 mps 739 mmHg 86%
    19:00 +20°C° 1 mm 3 mps 739 mmHg 90%
    20:00 +19°C° 1 mm 2 mps 739 mmHg 93%
    21:00 +18°C° 0.1 mm 2 mps 739 mmHg 93%
    22:00 +18°C° 0.1 mm 2 mps 739 mmHg 94%
    23:00 +17°C° 0.1 mm 2 mps 739 mmHg 95%

    29 May, Wednesday

    Time Temperature Precipitation Wind Pressure Humidity
    00:00 +17°C° 0.3 mm 2 mps 739 mmHg 96%
    01:00 +17°C° 0.3 mm 2 mps 739 mmHg 97%
    02:00 +17°C° 0.3 mm 2 mps 738 mmHg 98%
    03:00 +17°C° 0 mm 2 mps 738 mmHg 98%
    04:00 +16°C° 0 mm 2 mps 738 mmHg 98%
    05:00 +16°C° 0 mm 2 mps 738 mmHg 98%
    06:00 +17°C° 0 mm 2 mps 739 mmHg 95%
    07:00 +19°C° 0 mm 2 mps 739 mmHg 92%
    08:00 +20°C° 0 mm 3 mps 739 mmHg 89%
    09:00 +21°C° 0.7 mm 2 mps 740 mmHg 85%
    10:00 +21°C° 0.7 mm 2 mps 740 mmHg 81%
    11:00 +23°C° 0.7 mm 2 mps 740 mmHg 77%
    12:00 +23°C° 1.4 mm 2 mps 741 mmHg 79%
    13:00 +22°C° 1.4 mm 3 mps 741 mmHg 80%
    14:00 +21°C° 1.4 mm 3 mps 742 mmHg 82%
    15:00 +19°C° 0.8 mm 4 mps 742 mmHg 86%
    16:00 +17°C° 0.8 mm 5 mps 742 mmHg 89%
    17:00 +15°C° 0.8 mm 6 mps 743 mmHg 93%
    18:00 +13°C° 0 mm 5 mps 743 mmHg 93%
    19:00 +12°C° 0 mm 5 mps 744 mmHg 92%
    20:00 +10°C° 0 mm 5 mps 744 mmHg 92%
    21:00 +10°C° 0 mm 5 mps 745 mmHg 91%
    22:00 +9°C° 0 mm 5 mps 746 mmHg 91%
    23:00 +10°C° 0 mm 4 mps 747 mmHg 90%

    30 May, Thursday

    Time Temperature Precipitation Wind Pressure Humidity
    00:00 +10°C° 0 mm 4 mps 747 mmHg 90%
    01:00 +8°C° 0 mm 4 mps 747 mmHg 89%
    02:00 +9°C° 0 mm 3 mps 748 mmHg 88%
    03:00 +9°C° 0 mm 3 mps 748 mmHg 88%
    04:00 +8°C° 0 mm 3 mps 748 mmHg 88%
    05:00 +8°C° 0 mm 3 mps 749 mmHg 88%
    06:00 +9°C° 0 mm 3 mps 749 mmHg 84%
    07:00 +10°C° 0 mm 3 mps 750 mmHg 81%
    08:00 +11°C° 0 mm 3 mps 750 mmHg 77%
    09:00 +13°C° 0 mm 3 mps 750 mmHg 68%
    10:00 +16°C° 0 mm 3 mps 750 mmHg 58%
    11:00 +17°C° 0 mm 3 mps 751 mmHg 49%
    12:00 +18°C° 0 mm 3 mps 751 mmHg 47%
    13:00 +19°C° 0 mm 3 mps 751 mmHg 44%
    14:00 +19°C° 0 mm 3 mps 751 mmHg 42%
    15:00 +19°C° 0 mm 3 mps 750 mmHg 43%
    16:00 +19°C° 0 mm 3 mps 750 mmHg 45%
    17:00 +19°C° 0 mm 2 mps 750 mmHg 46%
    18:00 +18°C° 0 mm 2 mps 750 mmHg 53%
    19:00 +16°C° 0 mm 1 mps 750 mmHg 60%
    20:00 +15°C° 0 mm 1 mps 750 mmHg 67%
    21:00 +14°C° 0 mm 1 mps 750 mmHg 70%
    22:00 +12°C° 0 mm 0 mps 750 mmHg 72%
    23:00 +11°C° 0 mm 0 mps 750 mmHg 74%

    31 May, Friday

    Time Temperature Precipitation Wind Pressure Humidity
    00:00 +10°C° 0 mm 0 mps 750 mmHg 75%
    01:00 +10°C° 0 mm 0 mps 750 mmHg 77%
    02:00 +10°C° 0 mm 0 mps 750 mmHg 78%
    03:00 +10°C° 0 mm 0 mps 749 mmHg 78%
    04:00 +10°C° 0 mm 0 mps 749 mmHg 79%
    05:00 +9°C° 0 mm 0 mps 749 mmHg 79%
    06:00 +12°C° 0 mm 0 mps 749 mmHg 73%
    07:00 +15°C° 0 mm 1 mps 749 mmHg 66%
    08:00 +18°C° 0 mm 1 mps 749 mmHg 60%
    09:00 +19°C° 0 mm 1 mps 748 mmHg 55%
    10:00 +20°C° 0 mm 1 mps 748 mmHg 51%
    11:00 +20°C° 0 mm 2 mps 748 mmHg 47%
    12:00 +21°C° 0 mm 2 mps 748 mmHg 46%
    13:00 +21°C° 0 mm 2 mps 747 mmHg 46%
    14:00 +22°C° 0 mm 3 mps 747 mmHg 45%
    15:00 +21°C° 0 mm 3 mps 747 mmHg 47%
    16:00 +21°C° 0 mm 3 mps 747 mmHg 50%
    17:00 +21°C° 0 mm 2 mps 747 mmHg 52%
    18:00 +19°C° 0 mm 3 mps 747 mmHg 59%
    19:00 +18°C° 0 mm 3 mps 747 mmHg 66%
    20:00 +15°C° 0 mm 4 mps 748 mmHg 73%
    21:00 +13°C° 0 mm 4 mps 748 mmHg 73%
    22:00 +10°C° 0 mm 5 mps 748 mmHg 72%
    23:00 +8°C° 0 mm 5 mps 749 mmHg 72%
    Show more